This is the latest recevied weather packets stored in our database for station/object KI4NG. If no packets are shown the sender has not sent any weather packets the latest 10 day(s).
| Time | Temp. | Humidity | Pressure | Rain* | Wind** | Luminosity | Snow |
|---|---|---|---|---|---|---|---|
| 1788266657 | 22.22° C | 96% | 1023.5 hPa | 0 mm | - | 55 W/m² | - |
| 1788266352 | 21.67° C | 97% | 1023.7 hPa | 0 mm | - | 67 W/m² | - |
| 1788266046 | 21.67° C | 97% | 1023.6 hPa | 0 mm | - | 60 W/m² | - |
| 1788265744 | 21.67° C | 98% | 1023.6 hPa | 0 mm | - | 57 W/m² | - |
| 1788265439 | 21.11° C | 99% | 1023.5 hPa | 0 mm | - | 53 W/m² | - |
| 1788265138 | 20.56° C | 99% | 1023.4 hPa | 0 mm | - | 46 W/m² | - |
| 1788264834 | 20.56° C | 99% | 1023.4 hPa | 0 mm | - | 39 W/m² | - |
| 1788264529 | 20.56° C | 99% | 1023.4 hPa | 0 mm | - | 36 W/m² | - |
| 1788264223 | 20.56° C | 99% | 1023.5 hPa | 0 mm | - | 32 W/m² | - |
| 1788263919 | 20.56° C | 99% | 1023.3 hPa | 0 mm | - | 30 W/m² | - |
| 1788263613 | 20° C | 99% | 1023 hPa | 0 mm | - | 27 W/m² | - |
| 1788263312 | 20° C | 99% | 1023.2 hPa | 0 mm | - | 24 W/m² | - |
| 1788263012 | 20° C | 99% | 1023 hPa | 0 mm | - | 22 W/m² | - |
| 1788262710 | 20° C | 99% | 1023 hPa | 0 mm | - | 17 W/m² | - |
| 1788262410 | 20° C | 99% | 1022.8 hPa | 0 mm | - | 15 W/m² | - |
| 1788262105 | 20° C | 99% | 1022.7 hPa | 0 mm | - | 11 W/m² | - |
| 1788261804 | 20° C | 99% | 1022.7 hPa | 0 mm | - | 9 W/m² | - |
| 1788261500 | 20° C | 99% | 1022.5 hPa | 0 mm | - | 5 W/m² | - |
| 1788261198 | 20° C | 99% | 1022.4 hPa | 0 mm | - | 3 W/m² | - |
| 1788260897 | 20° C | 99% | 1022.3 hPa | 0 mm | - | 0 W/m² | - |
| 1788260593 | 20° C | 99% | 1022.3 hPa | 0 mm | - | 0 W/m² | - |
| 1788260289 | 20° C | 99% | 1022 hPa | 0 mm | - | 0 W/m² | - |
| 1788259989 | 20° C | 99% | 1022 hPa | 0 mm | - | 0 W/m² | - |
| 1788259685 | 20° C | 99% | 1021.8 hPa | 0 mm | - | 0 W/m² | - |
| 1788259380 | 20° C | 99% | 1022 hPa | 0 mm | - | 0 W/m² | - |
* Rain latest hour (hover to see other rain measurements)
** Current wind speed in m/s (hover to see current wind gust speed)